Back to catalog

STARLINK-37552

AliveCommunicationsVLEO
NORAD 69513·PAYLOAD·🇺🇸 United States

Launched Jun 12, 2026 from Cape Canaveral Space Force Station

Loading…

Next Passes (next 24 hours)

TLE

FreshSource: CelesTrak SupGP

Epoch: Sep 14, 2026, 15:15 UTC

1 69513C 26133F   26257.63590278 -.00033041  00000+0 -97649-3 0  2578
2 69513  53.1563 257.2945 0001381  84.3127 204.7026 15.34397780    10

Track STARLINK-37552 in real time with AllMySat

Download on the App Store